Location: Henham
(51.9333°N, 0.2500°E)
Time: 00:49:23
(UTC+00:00)

Cosmos 2150 Rocket - Pass Details

Date: 23 October 2019
Orbit: 749 x 808 km, 74.0° (Epoch: 11 November)

Event Time Altitude Azimuth Distance (km) Brightness Sun altitude
Rises 19:57:46 0° 332° (NNW) 3,330 8.0 -29.4°
Reaches altitude 10° 20:00:13 10° 330° (NNW) 2,390 7.1 -29.8°
Enters shadow 20:05:11 60° 273° (W) 910 4.5 -30.5°
